COSMOS 886 DEB

Satellite information

Favourite Embed

Satellite Type and Status

DEBRISIN ORBIT

Key statistics

Satellite COSMOS 886 DEB at a glance.

Uptime

17883

Days in orbit

Revolutions

≈ 13.2

Per day

Orbit

LEO

Low Earth Orbit

Inclination

65.8

Latest

Satellite identification and parameters

Extended collection of information and parameters for COSMOS 886 DEB.

Object identification

Identified? True

Debris? True

Object name: COSMOS 886 DEB

International designator: 1976-126BZ

Object number (NORAD): 19112

Object ID (CCSDS): 19112

Country: COMMONWEALTH OF INDEPENDENT STATES (CIS)

Current information (Y/N): Y

RCS size: SMALL

Orbital parameters

Period: 108.862 minutes

Inclination: 65.8238 deg

SMA: 7552.255 km

Apoapsis: 1861.107 km

Periapsis: 487.133 km

RAAN: 93.0121 deg

Eccentricy: 0.0909645

Argument of periapsis: 176.3154 deg

Mean anomaly: 184.5236 deg

Mean motion: 13.22780503 rev/day

Mean motion (dot): 0.00005648 rev/day2

B* drag term: 0.0013031 1/REarth

Two-line elements (TLE)

Creation date: Dec. 10, 2025, 10:36 p.m.

Reference frame: TEME

Reference center: EARTH

Epoch: Dec. 10, 2025, 2:37 p.m. UTC

TLE line 0: 0 COSMOS 886 DEB

TLE line 1: 1 19112U 76126BZ 25344.60920067 .00005648 00000-0 13031-2 0 9997

TLE line 2: 2 19112 65.8238 93.0121 0909645 176.3154 184.5236 13.22780503535108

Live tracking on map

Real-time ground track for satellite COSMOS 886 DEB.

In-orbit conjunctions

A list of the most updated potential collisions computed for object COSMOS 886 DEB.

Target Orbit TCA Probability of collision Miss distance Type
SL-11 R/B MEO 2024-11-14 11:02:58 0.001850411 263.0 (m) ROCKET BODY

Associated space launch

Second generation ASAT satellite

COSMOS 886 DEB was lifted into orbit during the mission ‘Tsiklon-2 | IS-A 4’, on board a Tsiklon-2 space rocket.

The launch took place on Dec. 27, 1976, 12:05 p.m. from 90.

For more information about the launch, click the button.

Launch to space Tsiklon-2 | IS-A 4
Tsiklon-2 | IS-A 4

Agency: N/A

Status: Launch Successful

Launch date: Dec. 27, 1976, 12:05 p.m. UTC

Rocket: Tsiklon-2

Launch pad: 90

Location: Baikonur Cosmodrome, Republic of Kazakhstan

...

Latest news about this satellite

There are no fresh news available about this satellite. Check back as we update our databases every day.


Newsletter sign-up

Weekly statistics, charts and insights to help you stay on top of the space industry.